Regional Weather Roundup
Issued by NWS

Home | Current Version | Previous Version | Text Only | Print | Product List | Glossary Off
Versions: 1 2 3 4 5 6 7 8 9 10 11 12 13 14 15 16 17 18 19 20 21 22 23 24 25 26 27 28 29 30 31 32 33 34 35 36 37 38 39 40 41 42 43 44 45 46 47 48 49 50

000
ASUS45 KSLC 301910
RWRUT

UTAH REGIONAL WEATHER ROUNDUP
NATIONAL WEATHER SERVICE SALT LAKE CITY UT
100 PM MDT SAT MAY 30 2015

UTZ001>011-023>025-302000-

NORTHERN UTAH

CITY           SKY/WX    TMP DP  RH WIND       PRES   REMARKS
BRIGHAM CITY   SUNNY     74  42  31 SW5       30.11S
HILL AFB       SUNNY     76  40  27 S14       30.12F
LOGAN          SUNNY     72  52  49 NW5       30.11F
OGDEN          MOSUNNY   78  43  28 SW12G18   30.10F
PROVO AIRPORT  PTSUNNY   72  43  35 SW3       30.14F
SALT LAKE CITY PTSUNNY   79  41  25 S15G21    30.08F
VERNAL         SUNNY     71  42  35 SW6       30.20F
WENDOVER       SUNNY     73  46  38 E5        30.09F
HEBER CITY     MOSUNNY   79  37  22 S9G23     30.17F
WEST JORDAN    SUNNY     73  43  33 SE16G23   30.12F

$$

UTZ012>022-026-027-302000-

SOUTHERN/CENTRAL UTAH

CITY           SKY/WX    TMP DP  RH WIND       PRES   REMARKS
BLANDING       MOSUNNY   76  31  19 S9        30.33F
BRYCE CANYON   SUNNY     70  41  34 E13       30.34F
CEDAR CITY     SUNNY     81  37  20 SW14G22   30.18F
DELTA          PTSUNNY   79  40  24 SW13G18   30.13F
HANKSVILLE     SUNNY     81  34  18 CALM      30.17F
MILFORD        MOSUNNY   82  37  20 SW20      30.14F
MOAB/CYNLANDS  MOSUNNY   79  36  21 W5        30.15F
PRICE          MOSUNNY   72  37  28 E5        30.24F
ST GEORGE      PTCLDY    90  43  19 NW7       30.04F

$$

REGIONAL REPORTS     COLORADO/ARIZONA

CITY           SKY/WX    TMP DP  RH WIND       PRES   REMARKS
CRAIG, CO      SUNNY     70  39  32 SW10      30.27F
GRAND JUNCTION SUNNY     75  34  22 VRB3      30.19F
RIFLE          SUNNY     73  37  27 N3        30.24F
MONTROSE       SUNNY     74  29  19 CALM      30.27F
CORTEZ         SUNNY     77  32  19 S12       30.26F
PAGE, AZ       SUNNY     84  40  21 NE7       30.15F
GRAND CANYON   MOSUNNY   78  27  15 MISG      30.29S
KINGMAN        SUNNY     93  15   6 W18G24    30.07F
FLAGSTAFF      MOSUNNY   76  30  18 VRB5      30.32S

$$

REGIONAL REPORTS    NEVADA/IDAHO/WYOMING

CITY           SKY/WX    TMP DP  RH WIND       PRES   REMARKS
LAS VEGAS, NV  MOSUNNY   95  26   8 SE7       29.93F
ELY            MOSUNNY   79  26  14 S18G30    30.19F
ELKO           MOSUNNY   79  45  29 W10G20    30.08S
POCATELLO, ID  MOSUNNY   80  43  26 S14       30.06F
BURLEY         SUNNY     81  48  31 S14       30.00F
EVANSTON, WY   SUNNY     70  41  34 SW17G23   30.25F
ROCK SPRINGS   SUNNY     67  35  30 SW8       30.25F
KEMMERER       MOSUNNY   68  41  37 SW12      30.26F

$$



USA.gov is the U.S. government's official web portal to all federal, state and local government web resources and services.